Weather History for Ukiah, CA

Change the Weather History Date:

Sunday, October 23, 2011

  Actual Average Record
Temperature  
Mean Temperature 65 °F 58 °F  
Max Temperature 84 °F 74 °F 99 °F (1959)
Min Temperature 46 °F 43 °F 29 °F (1916)
Degree Days  
Heating Degree Days 0 7  
Month to date heating degree days 65 100  
Since 1 July heating degree days 68 133  
Cooling Degree Days 0 0  
Month to date cooling degree days 19 19  
Year to date cooling degree days 895 832  
Growing Degree Days 14 (Base 50)    
Moisture  
Dew Point 49 °F    
Average Humidity 66    
Maximum Humidity 100    
Minimum Humidity 31    
Precipitation  
Precipitation 0.00 in 0.08 in 2.23 in (1989)
Month to date precipitation 3.59 1.03  
Year to date precipitation 25.65 25.00  
Since 1 July precipitation 3.61 1.62  
Snow  
Snow 0.00 in - - ()
Month to date snowfall 0.0  
Since 1 July snowfall 0.0  
Since 1 September snowfall 0.0  
Snow Depth 0.00 in    
Sea Level Pressure  
Sea Level Pressure 29.98 in    
Wind  
Wind Speed 0 mph (West)    
Max Wind Speed 4 mph    
Max Gust Speed -    
Visibility 10 miles    
Events      
T = Trace of Precipitation, MM = Missing Value Source: NWS Daily Summary

Daily Weather History Graph

Daily Weather History Graph

Search for Another Location

Airport:

Trip Planner

Search our weather history database for the weather conditions in past years. The results will help you decide how hot, cold, wet, or windy it might be!

Date:

Astronomy

Oct. 23, 2011 Rise Set
Actual Time 7:30 AM PDT 6:23 PM PDT
Civil Twilight 7:03 AM PDT 6:50 PM PDT
Nautical Twilight 6:32 AM PDT 7:21 PM PDT
Astronomical Twilight 6:01 AM PDT 7:52 PM PDT
Moon 3:45 AM PDT (10/23) 4:15 PM PDT (10/23)
Length of Visible Light 11h 47m
Length of Day
10h 52m
Waning Crescent, 13% of the Moon is Illuminated
Oct 23
Waning Crescent
Oct 26
New
Nov 2
First Quarter
Nov 10
Full
Nov 18
Last Quarter

Hourly Weather History & Observations

Time (PDT) Temp. Dew Point Humidity Pressure Visibility Wind Dir Wind Speed Gust Speed Precip Events Conditions
12:56 AM 52.0 °F 48.9 °F 89% 30.02 in 10.0 mi Calm Calm - N/A   Clear
1:56 AM 50.0 °F 48.9 °F 96% 30.03 in 10.0 mi Calm Calm - N/A   Clear
2:56 AM 51.8 °F 48.2 °F 88% 30.04 in 10.0 mi Calm Calm - N/A   Clear
3:56 AM 48.0 °F 46.9 °F 96% 30.02 in 10.0 mi Calm Calm - N/A   Clear
4:56 AM 46.9 °F 46.0 °F 97% 30.01 in 10.0 mi Calm Calm - N/A   Clear
5:56 AM 46.9 °F 45.0 °F 93% 30.01 in 10.0 mi Calm Calm - N/A   Clear
6:56 AM 46.9 °F 45.0 °F 93% 30.02 in 10.0 mi Calm Calm - N/A   Clear
7:56 AM 46.9 °F 45.0 °F 93% 30.02 in 10.0 mi Calm Calm - N/A   Clear
8:56 AM 53.1 °F 48.9 °F 86% 30.03 in 10.0 mi Calm Calm - N/A   Clear
9:56 AM 57.0 °F 52.0 °F 83% 30.04 in 10.0 mi Calm Calm - N/A   Clear
10:56 AM 64.0 °F 50.0 °F 60% 30.03 in 10.0 mi Calm Calm - N/A   Clear
12:56 PM 75.9 °F 48.9 °F 38% 29.98 in 10.0 mi Calm Calm - N/A   Clear
1:56 PM 78.1 °F 52.0 °F 40% 29.95 in 10.0 mi Calm Calm - N/A   Clear
2:56 PM 82.0 °F 48.0 °F 30% 29.92 in 10.0 mi Calm Calm - N/A   Clear
3:56 PM 82.9 °F 48.0 °F 29% 29.91 in 10.0 mi West 3.5 mph - N/A   Clear
4:56 PM 81.0 °F 51.1 °F 35% 29.91 in 10.0 mi Calm Calm - N/A   Clear
5:56 PM 73.0 °F 53.1 °F 49% 29.91 in 10.0 mi Calm Calm - N/A   Clear
6:56 PM 68.0 °F 48.0 °F 49% 29.92 in 10.0 mi Calm Calm - N/A   Clear
7:56 PM 64.0 °F 48.0 °F 56% 29.94 in 10.0 mi Calm Calm - N/A   Clear
8:56 PM 62.1 °F 48.0 °F 60% 29.95 in 10.0 mi Calm Calm - N/A   Clear
9:56 PM 59.0 °F 48.2 °F 67% 29.98 in 10.0 mi Calm Calm - N/A   Clear
10:56 PM 54.0 °F 50.0 °F 86% 29.96 in 10.0 mi Calm Calm - N/A   Clear
11:56 PM 53.1 °F 48.9 °F 86% 29.96 in 10.0 mi Calm Calm - N/A   Clear